SPACEMOBILE-002

导读

SPACEMOBILE-002是美国AST SpaceMobile公司打造的低轨通信卫星,于2024年9月12日成功发射。该卫星隶属于AST SpaceMobile的天基蜂窝宽带组网计划,核心目标是为普通智能手机提供直接的全球卫星互联网接入,无需额外硬件改造即可实现无地面网络覆盖区域的联网通信,助力填补全球数字鸿沟,推动普惠互联。

Basic Information
目录编号:
61048
目录名称:
SPACEMOBILE-002
国际标识:
2024-163D
轨道中心:
EARTH
卫星名称:
SPACEMOBILE-002
卫星全名:
SPACEMOBILE-002
卫星状态:
在轨 (已飞行733 天)
发射日期:
2024-09-12 UTC
国别 :
美国 (US)
星等 :
--
This satellite is enrolled in the Space Conjunction Data Service (SCDS) and the current flight risk assessment level is: No High Risk
Orbit Information
数据来源 国际轨道数据
星历时间: 2026-09-15T00:48:04+0800
1天前
查看轨道信息
半长轴: 6881.943km
偏心率: 0.0006883
轨道倾角: 52.976°
近地点辐角 39.406°
升交点赤经 257.625°
平近点角 320.744°
近地点: 499.069km
远地点: 508.543km
周期: 94.695分钟
每日圈数: 15.206744
Detailed Information
使用方式:
暂无
2D Orbit Map
3D Orbit Map
Orbit Altitude Analysis Chart
Orbit Inclination Analysis Chart
Orbit Comprehensive Analysis Chart
View Comprehensive Chart
Conjunction Data List
Event ID Objects TCA Miss Dist (km) Collision Risk Probability Collision Risk Index (CRI) Action
CDM_260916-090606-104806-837821
2026-09-16T
09:06:53+0000
1.039 km
极远距离
1.263595E-5 中风险 0.57
CDM_260916-090606-104806-837721
2026-09-16T
09:06:53+0000
1.398 km
极远距离
4.599357E-6 低风险 0.48
CDM_260910-174705-481806-104821
2026-09-10T
17:47:30+0000
2.979 km
极远距离
1.226306E-6 低风险 0.37
CDM_260917-191505-408406-104821
2026-09-17T
19:15:19+0000
2.650 km
极远距离
8.967636E-7 极低风险 0.34
Miss Distance Evolution Trend with All Objects Subscribe to Flight Safety Assessment
Collision Probability Evolution Trend with All Objects Subscribe to Flight Safety Assessment